Lid_Strength_Index
12 10 9 10 10 10 12 13 13 12 11 10 9 8 7 7 6 6 6 5 5 5 5 4 4 4 4 2 2 2 2 2 2 2 1 1 1 2 1 2 4 5 4 3
12 9 9 11 9 10 11 11 12 10 11 9 8 7 7 7 6 7 6 5 5 5 4 4 3 3 3 3 2 2 2 2 2 2 2 2 2 1 1 3 3 4 4 4
14 11 11 13 11 10 11 10 11 13 11 8 9 8 7 7 6 6 6 5 5 5 4 4 3 3 3 2 2 2 2 2 2 2 2 2 1 1 2 5 4 4 3 2
14 13 17 11 9 8 10 10 9 10 9 9 8 7 8 8 7 6 5 5 5 4 4 3 3 3 3 2 3 2 3 2 2 2 2 2 3 2 3 5 7 5 5 3
15 16 13 11 9 10 11 12 8 9 9 8 8 7 9 7 6 6 5 4 4 3 3 3 3 3 3 3 3 3 3 3 2 2 3 4 4 4 4 6 6 5 4 3
14 17 18 12 9 7 8 14 8 8 8 8 8 12 10 7 5 6 5 4 4 3 3 3 3 2 3 3 3 3 3 2 3 3 4 5 5 6 6 6 6 5 3 3
14 15 13 9 8 7 13 13 7 7 7 8 9 8 6 5 5 4 5 5 3 3 3 3 2 3 3 3 3 3 4 5 5 4 5 5 6 6 7 7 5 3 3 3
14 16 16 7 8 12 9 7 7 7 7 7 6 6 5 4 4 4 5 4 4 4 3 3 3 3 3 3 4 4 4 5 5 5 4 4 5 6 5 5 5 4 3 4
12 13 9 7 7 6 6 7 7 6 6 5 6 6 5 5 4 4 3 4 4 3 3 3 3 3 3 3 3 3 5 5 5 4 4 4 4 4 5 3 4 5 5 5
11 10 9 7 6 6 5 6 5 5 5 4 5 5 5 5 5 4 4 4 3 3 4 4 3 3 2 2 2 3 4 5 4 4 4 4 4 4 4 4 4 4 5 6
11 9 8 7 6 5 5 5 5 4 4 5 5 5 4 5 4 4 3 3 3 4 4 4 3 3 3 2 2 3 3 3 3 3 3 4 6 6 4 4 4 4 6 6
12 8 9 8 5 5 5 5 4 4 4 4 4 4 4 4 4 4 4 4 4 4 3 3 3 3 2 2 2 3 3 3 4 4 3 5 6 8 11 9 7 8 8 7
8 6 6 5 5 4 5 5 4 4 4 4 4 4 5 6 5 4 4 3 4 3 3 3 3 3 2 2 2 2 3 3 4 4 3 5 5 5 5 8 11 10 10 10
5 5 6 5 6 4 4 4 4 4 4 4 5 4 5 4 4 4 5 3 3 3 4 3 3 3 2 2 2 3 3 6 3 4 4 5 5 5 5 4 5 6 11 10
5 5 6 5 4 4 4 4 5 5 4 4 4 5 5 4 4 4 3 3 3 6 7 6 5 4 2 2 2 2 2 4 3 4 4 4 3 3 5 4 5 6 8 9
5 5 5 5 5 5 5 5 5 5 4 4 4 4 4 4 4 5 6 3 5 5 6 6 5 3 3 2 2 2 3 4 4 4 4 4 3 4 5 5 5 6 6 6
6 7 6 6 6 5 5 5 5 4 4 4 4 4 4 4 4 4 4 4 3 4 6 5 5 5 3 2 2 2 3 4 4 4 4 3 2 3 3 3 5 6 5 6
5 4 4 5 5 5 5 4 4 4 4 4 4 4 4 4 5 4 4 4 3 3 3 5 3 3 2 2 3 3 3 4 4 4 4 3 2 2 2 3 5 5 5 7
4 4 4 4 4 4 4 4 4 4 4 4 6 7 6 5 5 4 4 5 4 4 4 3 4 3 3 3 3 3 3 4 4 4 3 4 3 2 3 3 5 4 5 7
4 4 4 4 3 4 4 4 4 4 3 4 5 7 7 6 5 4 4 4 4 4 3 2 3 3 3 3 3 3 3 3 4 3 3 2 4 3 3 5 4 4 5 5
5 4 4 4 4 3 3 3 4 5 3 5 6 6 6 5 4 4 4 4 4 3 3 4 3 3 3 3 3 4 3 3 3 2 3 3 3 3 4 3 4 5 4 5
5 5 4 4 4 4 3 4 4 5 4 4 5 5 5 5 4 3 3 4 4 5 4 4 4 3 3 3 3 3 3 3 3 2 2 2 2 3 3 4 5 5 4 5
4 4 4 4 4 4 4 3 4 3 4 4 3 4 4 3 3 4 4 2 3 5 4 3 4 4 4 3 4 4 4 4 3 2 2 2 3 2 4 4 5 5 6 5
4 4 4 4 4 4 4 4 4 3 3 4 4 3 3 4 3 3 3 5 6 6 5 5 5 6 5 4 4 4 4 4 4 2 3 7 4 3 5 5 5 5 5 4
4 4 4 4 5 5 5 5 5 4 4 4 3 2 2 2 3 3 4 5 7 5 5 6 6 6 4 4 4 4 5 5 4 2 3 4 5 5 6 4 4 4 4 4
4 4 4 4 4 4 4 4 4 4 4 4 4 3 3 2 3 3 3 5 4 5 5 6 6 5 4 4 4 5 5 5 3 3 4 4 4 5 5 5 4 4 4 4
4 5 4 4 4 4 4 4 4 4 5 4 4 3 3 2 3 3 4 3 3 5 5 6 6 5 5 5 5 5 4 2 4 3 3 3 3 4 3 3 3 3 3 4